Regional Weather Roundup
Issued by NWS

Home | Current Version | Previous Version | Graphics & Text | Print | Product List | Glossary On
Versions: 1 2 3 4 5 6 7 8 9 10 11 12 13 14 15 16 17 18 19 20 21 22 23 24 25 26 27 28 29 30 31 32 33 34 35 36 37 38 39 40 41 42 43 44 45 46 47 48 49 50
000
ASUS45 KTFX 212010
RWRMT
MONTANA REGIONAL WEATHER ROUNDUP
NATIONAL WEATHER SERVICE GREAT FALLS MT
200 PM MDT SAT APR 21 2018

NOTE: "FAIR" INDICATES FEW OR NO CLOUDS BELOW 12000 FEET WITH NO
SIGNIFICANT WEATHER AND/OR OBSTRUCTIONS TO VISIBILITY.

MTZ001>007-043-212100-
WEST OF THE DIVIDE

CITY           SKY/WX    TMP DP  RH WIND       PRES   REMARKS
KALISPELL      FAIR      54  24  31 W21G33    30.04
MISSOULA       CLOUDY    54  30  40 W22G33    30.14S
BUTTE          FAIR      62  24  23 W18G29    30.06F
MULLAN PASS    FAIR      38  21  50 W9G23     30.14R WCI  31
ANACONDA         N/A     61  27  27 MISG      30.05S
DEER LODGE       N/A     57  32  38 MISG      30.07F
HAMILTON         N/A     55  27  33 SW8G20    30.13S
PLAINS           N/A     59  26  28 SW20      30.09F
RONAN            N/A     55  30  38 SW16G24   30.12F
$$

MTZ008-052>055-212100-
SOUTHWEST MONTANA

CITY           SKY/WX    TMP DP  RH WIND       PRES   REMARKS
BOZEMAN        FAIR      67  26  21 VRB3      30.02F
DILLON         FAIR      65  27  23 W16       30.05F
ENNIS          MOSUNNY   66  27  22 SW16      30.09F
W YELLOWSTONE  FAIR      52  23  32 SW15G22   30.13F
THREE FORKS      N/A     68  30  24 W14       30.00F
TWIN BRIDGES     N/A     66  27  23 SW10      30.02F
$$

MTZ009-010-012-014-046-048-049-054-212100-
EAST SLOPES AND CENTRAL MONTANA

CITY           SKY/WX    TMP DP  RH WIND       PRES   REMARKS
CUT BANK       PTSUNNY   53  26  35 W33G45    29.92R
GREAT FALLS    FAIR      64  29  26 W38G59    29.93F
HELENA         FAIR      66  32  28 W21G28    29.99F
AUGUSTA        FAIR      58  24  28 W28G39    29.93F
BOWMANS CRNR   FAIR      60  28  30 SW26G33   29.95F
CHOTEAU          N/A     61  25  25 SW22G41   29.95R
FAIRFIELD        N/A     62  28  28 SW25G36   29.93S
POWER          FAIR      62  28  27 SW31G43   29.93S
RAYNESFORD     FAIR      64  28  26 SW24G33   29.95F
ULM            FAIR      65  30  27 W30G37    29.96F
WHITE SULPHUR    N/A     63  28  27 SW17G24   30.00
$$

MTZ011-013-016-021-045-047-050-051-212100-
NORTH CENTRAL MONTANA

CITY           SKY/WX    TMP DP  RH WIND       PRES   REMARKS
HAVRE          FAIR      65  35  33 W15       29.88F
LEWISTOWN      FAIR      67  30  25 NW14G26   29.95F
N BAR RANCH    FAIR      68  21  17 CALM      29.98F
CHINOOK          N/A     64  36  34 W14       29.87F
GEYSER         FAIR      62  29  28 W22G32    29.94F
GRASS RANGE    FAIR      69  26  19 W10G24    29.90F
STANFORD       FAIR      63  28  26 W20G28    29.96F
$$

MTZ017>020-022>027-061-062-212100-
NORTHEAST MONTANA

CITY           SKY/WX    TMP DP  RH WIND       PRES   REMARKS
GLASGOW        FAIR      71  37  28 S15       29.90F
GLENDIVE       FAIR      65  40  39 S18G25    30.01F
JORDAN           N/A     70  37  29 S18G24    29.93F
MALTA          SUNNY     70  39  32 SW12      29.85F
SIDNEY         FAIR      68  40  35 S15G23    30.00F
WOLF POINT     FAIR      73  35  25 SW13G18   29.94F
PLENTYWOOD       N/A     64  39  39 MISG      29.97F
POPLAR           N/A     70  36  28 MISG      29.95F
SCOBEY           N/A     67  34  29 SE3       29.93
$$

MTZ028>42-056>058-212100-
SOUTHCENTRAL AND SOUTHEAST MONTANA

CITY           SKY/WX    TMP DP  RH WIND       PRES   REMARKS
BAKER          FAIR      62  38  40 S21G28    30.07
BILLINGS       FAIR      69  31  24 W10       29.98F
LIVINGSTON     FAIR      67  27  22 W9        29.99
MILES CITY     FAIR      67  39  35 S12       29.99
BIG TIMBER     SUNNY     68  25  19 W16G28    30.00F
FORSYTH          N/A     70  32  24 SE6       29.97F
HARLOWTON      FAIR      67  27  22 NW20G30   29.98F
LAUREL           N/A     68  28  22 VRB6      29.99F
$$

REGIONAL REPORTS...DAKOTAS

CITY           SKY/WX    TMP DP  RH WIND       PRES   REMARKS
WILLISTON      FAIR      66  39  37 S18G26    30.01F
MINOT          FAIR      64  38  38 S25G35    30.11F
DICKINSON      FAIR      63  36  36 S25G35    30.07F
BEACH          FAIR      63  34  34 S21G30    30.08F
CROSBY         FAIR      64  41  42 S20G30    30.00F
TIOGA          FAIR      61  45  55 S22G32    30.05F
WATFORD CITY   FAIR      64  39  39 S17G26    30.04F
BISMARCK       FAIR      62  35  36 S23G35    30.19F
GRAND FORKS    FAIR      57  44  62 S17G23    30.27F
FARGO          FAIR      60  39  45 S6G20     30.29F
BUFFALO SD       N/A     61  34  36 S20G31    30.03
RAPID CITY     FAIR      54  37  52 S17G24    30.16F
$$

REGIONAL REPORTS...WYOMING/IDAHO/WASHINGTON

CITY           SKY/WX    TMP DP  RH WIND       PRES   REMARKS
GILLETTE       FAIR      53  37  54 SE15      30.09F
SHERIDAN       FAIR      66  37  34 S6        30.02F
BUFFALO WY     FAIR      63  35  35 VRB7      30.06F
CODY           FAIR      66  25  21 VRB3      30.04F
YELLOWSTONE LA   N/A     51  16  24 VRB6      30.20F
IDAHO FALLS    FAIR      62  30  29 SW14      30.15S
SALMON         FAIR      62  34  35 N12       30.06F
BOISE          FAIR      68  34  28 NW10      30.17F
SPOKANE        FAIR      55  22  27 W24       30.19R
$$

REGIONAL REPORTS...ALBERTA

CITY           SKY/WX    TMP DP  RH WIND       PRES   REMARKS
CALGARY        LGT RAIN  52  28  40 W24G41    29.69
CARDSTON         N/A     52  23  32 W18G35      N/A
EDMONTON       LGT RAIN  45  28  53 N10       29.70
FORT MCMURRAY  MOSUNNY   59  28  31 SE9       29.76F
HIGH LEVEL     LGT RAIN  45  30  57 SE6       29.79S
LETHBRIDGE     MOSUNNY   57  25  28 SW46G55   29.81F
LLOYDMINSTER   LGT RAIN  45  41  87 E10       29.67F
MEDICINE HAT   MOSUNNY   66  34  30 SW31G44   29.77F
MILK RIVER       N/A     55  25  30 W33G52      N/A
ONEFOUR          N/A     63  34  34 W30G38      N/A
PEACE RIVER    PTSUNNY   45  34  65 SW13      29.74R
PINCHER CREEK  PTSUNNY   50  25  37 W46G58    29.85R
WATERTON GATE    N/A     45  25  45 SW23G32     N/A
$$

REGIONAL REPORTS...SASKATCHEWAN

CITY           SKY/WX    TMP DP  RH WIND       PRES   REMARKS
CORONACH         N/A     68  32  26 S14G23      N/A
CYPRESS HILLS    N/A     52  30  43 SW20G28     N/A
ESTEVAN        PTSUNNY   63  41  45 S16G26    30.01F
MOOSE JAW        N/A     70  34  26 S20G26      N/A
PRINCE ALBERT  CLOUDY    41  34  75 E10       29.85F
REGINA         CLOUDY    66  43  42 SE17G23   29.92F
ROCKGLEN         N/A     66  32  28 S20G28      N/A
SASKATOON      CLOUDY    66  41  39 SE13G21   29.76F
SWIFT CURRENT  PTSUNNY   64  34  32 SW24G30   29.80F
VAL MARIE        N/A     68  28  22 SW18G24     N/A
$$



USA.gov is the U.S. government's official web portal to all federal, state and local government web resources and services.